FW4617 Weather Reports


time (UTC)temp
C
wind
direction
speed
KPH
gust
KPH
rain 1hr
cm
rain 24hr
cm
rain mn
cm
humidity
%
barometer
mb
20260510164520 23 175 0.0 1.6 0.00 0.03 0.03 84 1017.5
20260510164016 22 197 1.6 3.2 0.00 0.03 0.03 85 1017.7
20260510163512 22 195 0.0 0.0 0.00 0.03 0.03 86 1017.8
20260510163008 21 195 1.6 3.2 0.00 0.03 0.03 92 1017.6
20260510162504 21 203 3.2 3.2 0.00 0.03 0.03 95 1017.8
20260510162000 20 211 1.6 1.6 0.00 0.03 0.03 99 1017.8
20260510161456 20 187 0.0 0.0 0.00 0.03 0.03 99 1018.0
20260510160953 20 200 0.0 1.6 0.00 0.03 0.03 99 1017.9
20260510160450 19 204 0.0 0.0 0.00 0.03 0.03 99 1017.7
20260510155948 19 196 0.0 0.0 0.00 0.03 0.03 99 1017.7
20260510155446 19 204 0.0 0.0 0.00 0.03 0.03 99 1017.8
20260510154942 19 203 0.0 1.6 0.00 0.03 0.03 99 1017.6
20260510154439 18 206 0.0 0.0 0.00 0.03 0.03 99 1018.2
20260510153937 18 195 3.2 3.2 0.00 0.03 0.03 99 1017.8
20260510153434 18 205 0.0 0.0 0.00 0.03 0.03 99 1017.7
20260510152931 18 191 3.2 3.2 0.00 0.03 0.03 99 1017.9
20260510152429 18 201 1.6 3.2 0.00 0.03 0.03 99 1018.0
20260510151925 18 203 0.0 1.6 0.00 0.03 0.03 99 1017.9
20260510151422 18 206 0.0 0.0 0.00 0.03 0.03 99 1017.8
20260510150918 18 178 1.6 1.6 0.00 0.03 0.03 99 1017.6
20260510150414 18 184 0.0 0.0 0.00 0.03 0.03 99 1017.7
20260510145910 18 145 0.0 0.0 0.00 0.03 0.03 99 1017.6
20260510145407 18 200 0.0 0.0 0.00 0.03 0.03 99 1017.4
20260510144904 18 207 1.6 3.2 0.00 0.03 0.03 99 1017.6
20260510144401 18 178 0.0 0.0 0.00 0.03 0.03 99 1017.4
20260510143900 18 178 0.0 0.0 0.00 0.03 0.03 99 1017.7
20260510143357 18 168 1.6 3.2 0.00 0.03 0.03 99 1017.5
20260510142854 18 178 0.0 0.0 0.00 0.03 0.03 99 1017.3
20260510142350 18 178 0.0 1.6 0.00 0.03 0.03 99 1017.5
20260510141847 18 178 0.0 0.0 0.00 0.03 0.03 99 1017.6
20260510141345 18 206 3.2 3.2 0.00 0.03 0.03 99 1017.4
20260510140842 18 201 0.0 0.0 0.00 0.03 0.03 99 1017.3
20260510140338 18 201 0.0 0.0 0.00 0.03 0.03 99 1017.3
20260510135837 18 205 0.0 1.6 0.00 0.03 0.03 99 1017.4
20260510135333 18 205 0.0 0.0 0.00 0.03 0.03 99 1017.4
20260510134831 17 206 0.0 0.0 0.00 0.03 0.03 99 1017.5
20260510134327 17 207 1.6 1.6 0.00 0.03 0.03 99 1017.3
20260510133823 17 207 1.6 1.6 0.00 0.03 0.03 99 1017.3
20260510133320 17 207 0.0 0.0 0.00 0.03 0.03 99 1017.4
20260510132815 17 208 1.6 3.2 0.00 0.03 0.03 99 1017.4
20260510132314 17 206 1.6 1.6 0.00 0.03 0.03 99 1017.3
20260510131810 17 207 0.0 0.0 0.00 0.03 0.03 99 1017.3
20260510131308 17 205 0.0 0.0 0.00 0.03 0.03 99 1017.4
20260510130804 17 204 0.0 1.6 0.00 0.03 0.03 99 1017.1
20260510130301 17 204 0.0 0.0 0.00 0.03 0.03 99 1017.3
20260510125757 17 206 0.0 0.0 0.00 0.03 0.03 99 1017.2
20260510125253 17 205 0.0 0.0 0.00 0.03 0.03 99 1017.0
20260510124750 17 207 0.0 0.0 0.00 0.03 0.03 99 1017.0
20260510124248 17 202 0.0 0.0 0.00 0.03 0.03 99 1017.0
20260510123743 17 201 1.6 1.6 0.00 0.03 0.03 99 1016.8
20260510123239 17 206 0.0 0.0 0.00 0.03 0.03 99 1017.0
20260510122736 17 206 1.6 1.6 0.00 0.03 0.03 99 1016.9
20260510122232 17 205 1.6 1.6 0.00 0.03 0.03 99 1016.8
20260510121728 17 205 0.0 1.6 0.00 0.03 0.03 99 1016.7
20260510121226 17 201 0.0 0.0 0.00 0.03 0.03 99 1016.8
20260510120723 17 201 0.0 0.0 0.00 0.03 0.03 99 1016.5
20260510120220 17 205 0.0 0.0 0.00 0.03 0.03 99 1016.4
20260510115715 17 204 0.0 0.0 0.00 0.03 0.03 99 1016.3
20260510115214 17 204 0.0 0.0 0.00 0.03 0.03 99 1016.2
20260510114709 17 204 0.0 0.0 0.00 0.03 0.03 99 1016.3
20260510114206 17 204 0.0 0.0 0.00 0.03 0.03 99 1016.0
20260510113701 17 204 0.0 0.0 0.00 0.03 0.03 99 1016.0
20260510113158 17 205 0.0 0.0 0.00 0.03 0.03 99 1015.9
20260510112654 17 206 0.0 0.0 0.00 0.03 0.03 99 1015.9
20260510112152 17 206 0.0 0.0 0.00 0.03 0.03 99 1015.7
20260510111648 17 206 0.0 0.0 0.00 0.03 0.03 99 1015.5
20260510111145 17 206 0.0 0.0 0.00 0.03 0.03 99 1015.4
20260510110639 17 205 0.0 0.0 0.00 0.03 0.03 99 1015.4
20260510110137 17 205 0.0 0.0 0.00 0.03 0.03 99 1015.2
20260510105633 17 205 0.0 0.0 0.00 0.03 0.03 99 1014.9
20260510105131 17 205 0.0 0.0 0.00 0.03 0.03 99 1014.9
20260510104629 17 206 0.0 0.0 0.00 0.03 0.03 99 1015.0
20260510104126 17 206 0.0 0.0 0.00 0.03 0.03 99 1014.6
20260510103623 17 205 0.0 0.0 0.00 0.03 0.03 99 1014.6
20260510103118 17 205 0.0 0.0 0.00 0.03 0.03 99 1014.6
20260510102614 17 205 0.0 0.0 0.00 0.03 0.03 99 1014.9
20260510102110 17 202 0.0 0.0 0.00 0.03 0.03 99 1014.6
20260510101608 17 202 0.0 0.0 0.00 0.03 0.03 99 1014.5
20260510101106 17 202 0.0 0.0 0.00 0.03 0.03 99 1014.3
20260510100602 17 202 0.0 0.0 0.00 0.03 0.03 99 1014.6
20260510100100 17 202 0.0 0.0 0.00 0.03 0.03 99 1014.6
20260510095556 17 202 0.0 0.0 0.00 0.03 0.03 99 1014.6
20260510095056 17 202 0.0 0.0 0.00 0.03 0.03 99 1014.4
20260510094555 17 202 0.0 0.0 0.00 0.03 0.03 99 1014.5
20260510094051 17 202 0.0 0.0 0.00 0.03 0.03 99 1014.2
20260510093547 17 202 0.0 0.0 0.18 0.03 0.03 99 1014.3
20260510093044 17 202 0.0 0.0 0.18 0.03 0.03 99 1014.3
20260510092541 17 202 0.0 0.0 0.18 0.03 0.03 99 1014.2
20260510092041 17 202 1.6 1.6 0.00 0.00 0.00 99 1014.2
20260510091538 17 205 0.0 0.0 0.00 0.00 0.00 99 1013.9
20260510091033 17 206 0.0 0.0 0.00 0.00 0.00 99 1014.0
20260510090531 17 206 0.0 0.0 0.00 0.00 0.00 99 1013.9
20260510090026 17 206 0.0 0.0 0.00 0.00 0.00 99 1013.9
20260510085527 17 206 0.0 0.0 0.00 0.00 0.00 99 1013.9
20260510085023 17 206 0.0 0.0 0.00 0.00 0.00 99 1013.8
20260510084520 17 205 0.0 0.0 0.00 0.00 0.00 99 1013.8
20260510084016 17 206 0.0 0.0 0.00 0.00 0.00 99 1013.8
20260510083513 17 206 0.0 0.0 0.00 0.00 0.00 99 1013.8
20260510083009 17 206 0.0 0.0 0.00 0.00 0.00 99 1013.8
20260510082507 17 206 0.0 0.0 0.00 0.00 0.00 99 1013.5
20260510082006 17 206 0.0 0.0 0.00 0.00 0.00 99 1013.5
20260510081502 17 206 0.0 0.0 0.00 0.00 0.00 99 1013.4
20260510080958 17 207 0.0 0.0 0.00 0.00 0.00 99 1013.4
20260510080456 17 207 0.0 0.0 0.00 0.00 0.00 99 1013.3
20260510075954 17 207 0.0 0.0 0.00 0.00 0.00 99 1013.2
20260510075451 17 207 0.0 0.0 0.00 0.00 0.00 99 1013.4
20260510074948 17 207 0.0 0.0 0.00 0.00 0.00 99 1013.2
20260510074445 17 207 0.0 0.0 0.00 0.00 0.00 99 1013.2
20260510073941 17 206 0.0 0.0 0.00 0.00 0.00 99 1013.4
20260510073437 16 206 0.0 0.0 0.00 0.00 0.00 99 1013.2
20260510072934 17 206 0.0 0.0 0.00 0.00 0.00 99 1013.2
20260510072431 17 207 0.0 0.0 0.00 0.00 0.00 99 1013.2
20260510071926 17 207 0.0 0.0 0.00 0.00 0.00 99 1013.1
20260510071423 16 207 0.0 0.0 0.00 0.00 0.00 99 1013.2
20260510070921 17 207 0.0 0.0 0.00 0.00 0.00 99 1013.3
20260510070418 17 207 0.0 0.0 0.00 0.00 0.00 99 1013.4
20260510065913 17 207 0.0 0.0 0.00 0.00 0.00 99 1013.5
20260510065410 17 207 0.0 0.0 0.00 0.00 0.00 99 1013.1
20260510064907 16 207 0.0 0.0 0.00 0.00 0.00 99 1013.4
20260510064405 16 207 0.0 0.0 0.00 0.00 0.00 99 1013.3
20260510063900 16 207 0.0 0.0 0.00 0.00 0.00 99 1013.4
20260510063357 16 205 0.0 0.0 0.00 0.00 0.00 99 1013.6
20260510062854 15 204 0.0 0.0 0.00 0.00 0.00 99 1013.2
20260510062349 16 204 0.0 1.6 0.00 0.00 0.00 99 1013.4
20260510061845 16 204 0.0 0.0 0.00 0.00 0.00 99 1013.7
20260510061342 15 201 0.0 0.0 0.00 0.00 0.00 99 1013.6
20260510060838 15 201 0.0 0.0 0.00 0.00 0.00 99 1013.7
20260510060335 15 201 0.0 0.0 0.00 0.00 0.00 99 1013.7
20260510055832 15 206 0.0 0.0 0.00 0.00 0.00 99 1013.6
20260510055331 15 206 0.0 0.0 0.00 0.00 0.00 99 1013.7
20260510054830 15 206 0.0 0.0 0.00 0.00 0.00 99 1013.5
20260510054326 15 206 0.0 0.0 0.00 0.00 0.00 99 1013.7
20260510053821 15 201 0.0 0.0 0.00 0.00 0.00 99 1013.7
20260510053317 15 201 0.0 0.0 0.00 0.00 0.00 99 1013.7
20260510052814 15 201 0.0 0.0 0.00 0.00 0.00 99 1013.7
20260510052309 15 201 0.0 0.0 0.00 0.00 0.00 99 1013.8
20260510051806 15 206 0.0 0.0 0.00 0.00 0.00 99 1013.7
20260510051302 15 206 0.0 0.0 0.00 0.00 0.00 99 1013.9
20260510050800 15 206 0.0 0.0 0.00 0.00 0.00 99 1013.8
20260510050256 15 206 0.0 0.0 0.00 0.00 0.00 99 1013.9
20260510045753 15 206 0.0 0.0 0.00 0.13 0.13 99 1013.9
20260510045250 15 206 0.0 0.0 0.00 0.13 0.13 99 1013.8
20260510044747 15 206 0.0 0.0 0.00 0.13 0.13 99 1013.8
20260510044245 16 206 0.0 0.0 0.00 0.13 0.13 99 1013.8
20260510043740 15 207 0.0 0.0 0.00 0.13 0.13 99 1013.7
20260510043237 16 205 0.0 0.0 0.00 0.13 0.13 99 1013.8
20260510042734 16 204 0.0 0.0 0.00 0.13 0.13 99 1013.9
20260510042229 16 206 0.0 0.0 0.00 0.13 0.13 99 1014.1
20260510041727 16 206 0.0 0.0 0.00 0.13 0.13 99 1013.8
20260510041224 16 206 0.0 0.0 0.00 0.13 0.13 99 1014.1
20260510040721 16 206 0.0 0.0 0.00 0.13 0.13 99 1014.1
20260510040217 16 206 0.0 0.0 0.00 0.13 0.13 99 1014.1
20260510035713 16 206 0.0 0.0 0.00 0.13 0.13 99 1014.0
20260510035209 16 206 0.0 0.0 0.00 0.13 0.13 99 1014.2
20260510034705 16 206 0.0 0.0 0.00 0.13 0.13 99 1014.3
20260510034203 16 206 0.0 0.0 0.00 0.13 0.13 99 1014.3
20260510033659 16 206 0.0 0.0 0.00 0.13 0.13 99 1014.3
20260510033157 16 206 0.0 0.0 0.00 0.13 0.13 99 1014.4
20260510032653 16 206 0.0 0.0 0.00 0.13 0.13 99 1014.4
20260510032148 16 206 0.0 0.0 0.00 0.13 0.13 99 1014.3
20260510031643 17 206 0.0 0.0 0.00 0.13 0.13 99 1014.3
20260510031141 16 207 0.0 0.0 0.00 0.13 0.13 99 1014.3
20260510030640 16 206 0.0 0.0 0.00 0.13 0.13 99 1014.3
20260510030138 16 207 0.0 0.0 0.00 0.13 0.13 99 1014.2
20260510025635 16 206 0.0 0.0 0.00 0.13 0.13 99 1014.0
20260510025132 16 220 0.0 1.6 0.00 0.13 0.13 99 1014.2
20260510024629 16 190 0.0 0.0 0.00 0.13 0.13 99 1014.0
20260510024126 16 190 0.0 0.0 0.00 0.13 0.13 99 1013.8
20260510023622 16 190 0.0 0.0 0.00 0.13 0.13 99 1013.7
20260510023119 16 190 0.0 0.0 0.00 0.13 0.13 99 1013.6
20260510022619 16 190 0.0 0.0 0.00 0.13 0.13 99 1013.8
20260510022114 16 190 0.0 0.0 0.00 0.13 0.13 99 1013.8
20260510021610 16 190 0.0 0.0 0.00 0.13 0.13 99 1013.4
20260510021108 16 190 0.0 0.0 0.00 0.13 0.13 99 1013.3
20260510020607 17 190 0.0 0.0 0.00 0.13 0.13 99 1013.3
20260510020103 17 190 0.0 0.0 0.00 0.13 0.13 99 1013.4
20260510015559 17 190 0.0 0.0 0.00 0.13 0.13 99 1013.2
20260510015056 17 190 0.0 0.0 0.00 0.13 0.13 99 1013.0
20260510014552 17 190 0.0 0.0 0.00 0.13 0.13 99 1013.0
20260510014049 17 190 0.0 0.0 0.00 0.13 0.13 99 1012.9
20260510013544 17 190 0.0 0.0 0.00 0.13 0.13 99 1012.7
20260510013040 17 190 0.0 0.0 0.00 0.13 0.13 99 1012.8
20260510012533 17 190 0.0 0.0 0.00 0.13 0.13 99 1012.7
20260510012031 18 190 0.0 0.0 0.00 0.13 0.13 99 1012.7
20260510011530 18 190 0.0 0.0 0.00 0.13 0.13 99 1012.5
20260510011026 18 190 0.0 0.0 0.00 0.13 0.13 99 1012.3
20260510010523 18 190 0.0 0.0 0.00 0.13 0.13 99 1012.2
20260510010020 18 190 0.0 0.0 0.00 0.13 0.13 99 1012.2
20260510005515 18 190 0.0 0.0 0.00 0.13 0.13 99 1012.0
20260510005013 18 190 0.0 0.0 0.00 0.13 0.13 99 1012.1
20260510004510 18 190 0.0 0.0 0.00 0.13 0.13 99 1012.2
20260510004008 19 190 0.0 0.0 0.00 0.13 0.13 99 1011.9
20260510003505 19 190 0.0 0.0 0.00 0.13 0.13 99 1011.8
20260510003000 19 190 0.0 0.0 0.00 0.13 0.13 98 1011.6
20260510002456 20 190 0.0 0.0 0.00 0.13 0.13 99 1011.6
20260510001953 20 190 0.0 0.0 0.00 0.13 0.13 99 1011.7
20260510001450 20 190 0.0 0.0 0.00 0.13 0.13 99 1011.6
20260510000948 20 190 0.0 0.0 0.00 0.13 0.13 98 1011.6
20260510000444 20 190 0.0 0.0 0.00 0.13 0.13 98 1011.6
20260509235940 20 190 0.0 0.0 0.00 0.13 0.13 98 1011.5
20260509235437 20 190 0.0 0.0 0.00 0.13 0.13 97 1011.5
20260509234933 20 190 0.0 0.0 0.00 0.13 0.13 97 1011.5
20260509234430 20 212 0.0 0.0 0.00 0.13 0.13 97 1011.5
20260509233928 20 212 0.0 0.0 0.00 0.13 0.13 97 1011.5
20260509233426 20 212 0.0 0.0 0.00 0.13 0.13 96 1011.4
20260509232922 20 212 0.0 0.0 0.00 0.13 0.13 96 1011.4
20260509232420 20 212 0.0 0.0 0.00 0.13 0.13 97 1011.4
20260509231915 21 212 0.0 0.0 0.00 0.13 0.13 97 1011.6
20260509231412 21 212 0.0 0.0 0.00 0.13 0.13 96 1011.5
20260509230910 21 212 0.0 0.0 0.00 0.13 0.13 96 1011.3
20260509230407 21 212 0.0 0.0 0.00 0.13 0.13 95 1011.5
20260509225902 21 212 1.6 1.6 0.00 0.13 0.13 95 1011.4
20260509225359 21 212 0.0 0.0 0.00 0.13 0.13 95 1011.3
20260509224855 21 212 0.0 0.0 0.00 0.13 0.13 94 1011.5
20260509224351 22 212 1.6 1.6 0.00 0.13 0.13 93 1011.3
20260509223849 21 212 0.0 0.0 0.00 0.13 0.13 89 1011.4
20260509223345 22 212 0.0 0.0 0.00 0.13 0.13 89 1011.5
20260509222843 22 212 1.6 1.6 0.00 0.13 0.13 83 1011.5
20260509222343 22 212 0.0 0.0 0.00 0.13 0.13 84 1011.2
20260509221838 22 216 4.8 4.8 0.00 0.13 0.13 83 1011.1
20260509221337 22 178 1.6 1.6 0.00 0.13 0.13 84 1011.2
20260509220837 22 210 3.2 3.2 0.00 0.13 0.13 84 1011.2
20260509220333 22 183 0.0 0.0 0.00 0.13 0.13 83 1011.2
20260509215828 22 184 0.0 0.0 0.00 0.13 0.13 82 1011.1
20260509215325 22 215 1.6 1.6 0.00 0.13 0.13 83 1011.1
20260509214822 23 215 0.0 0.0 0.00 0.13 0.13 80 1011.0
20260509214319 22 217 0.0 1.6 0.00 0.13 0.13 80 1011.1
20260509213817 22 221 1.6 1.6 0.00 0.13 0.13 82 1010.8
20260509213312 22 285 3.2 4.8 0.00 0.13 0.13 83 1010.9
20260509212810 22 211 0.0 0.0 0.00 0.13 0.13 81 1010.8
20260509212307 22 244 4.8 4.8 0.00 0.13 0.13 82 1010.5
20260509211802 23 220 3.2 3.2 0.00 0.13 0.13 80 1010.5
20260509211259 23 208 0.0 1.6 0.00 0.13 0.13 80 1010.6
20260509210756 22 174 0.0 0.0 0.00 0.13 0.13 81 1010.8
20260509210254 23 194 0.0 0.0 0.00 0.13 0.13 79 1010.7
20260509205753 22 194 0.0 0.0 0.00 0.13 0.13 80 1010.7
20260509205248 22 269 3.2 3.2 0.00 0.13 0.13 81 1010.6
20260509204744 22 188 1.6 1.6 0.00 0.13 0.13 82 1010.6
20260509204240 22 181 1.6 1.6 0.00 0.13 0.13 80 1010.5
20260509203736 22 207 1.6 1.6 0.00 0.13 0.13 83 1010.7
20260509203235 22 311 4.8 8.0 0.00 0.13 0.13 83 1010.9
20260509202730 21 181 0.0 0.0 0.00 0.13 0.13 84 1010.9
20260509202226 22 164 3.2 4.8 0.00 0.13 0.13 84 1010.9
20260509201721 22 188 0.0 1.6 0.00 0.13 0.13 83 1011.2
20260509201218 22 280 3.2 4.8 0.00 0.13 0.13 83 1011.3
20260509200714 22 202 1.6 1.6 0.00 0.13 0.13 84 1011.4
20260509200209 22 175 1.6 1.6 0.00 0.13 0.13 83 1011.5
20260509195705 22 227 1.6 1.6 0.00 0.13 0.13 83 1011.6
20260509195201 21 213 4.8 4.8 0.00 0.13 0.13 84 1011.5
20260509194701 21 310 4.8 4.8 0.00 0.13 0.13 84 1011.4
20260509194158 22 229 3.2 3.2 0.00 0.13 0.13 82 1011.5
20260509193654 22 88 1.6 3.2 0.00 0.13 0.13 82 1011.6
20260509193149 21 201 0.0 0.0 0.00 0.13 0.13 85 1011.4
20260509192646 21 127 1.6 1.6 0.00 0.13 0.13 84 1011.5
20260509192141 22 200 4.8 4.8 0.00 0.13 0.13 83 1011.6
20260509191641 21 190 0.0 1.6 0.00 0.13 0.13 84 1011.6
20260509191138 21 170 0.0 0.0 0.00 0.13 0.13 85 1011.8
20260509190635 21 302 4.8 4.8 0.00 0.13 0.13 85 1011.8
20260509190132 21 191 1.6 1.6 0.00 0.13 0.13 85 1011.7
20260509185629 20 202 1.6 1.6 0.00 0.13 0.13 87 1011.9
20260509185125 21 199 0.0 1.6 0.00 0.13 0.13 86 1012.0
20260509184624 20 199 3.2 3.2 0.00 0.13 0.13 88 1011.9
20260509184120 21 191 0.0 0.0 0.00 0.13 0.13 86 1011.8
20260509183616 20 184 1.6 1.6 0.00 0.13 0.13 88 1012.1
20260509183111 20 252 3.2 3.2 0.00 0.13 0.13 89 1012.2
20260509182608 20 189 0.0 0.0 0.00 0.13 0.13 91 1012.3
20260509182105 20 200 3.2 4.8 0.00 0.13 0.13 91 1012.4
20260509181603 20 211 3.2 4.8 0.00 0.13 0.13 90 1012.3
20260509181100 20 203 0.0 0.0 0.00 0.13 0.13 91 1012.5
20260509180555 19 196 3.2 3.2 0.00 0.13 0.13 92 1012.5
20260509180053 20 201 1.6 1.6 0.00 0.13 0.13 89 1012.6
20260509175548 20 199 0.0 0.0 0.00 0.13 0.13 90 1012.6
20260509175046 19 206 4.8 4.8 0.00 0.13 0.13 91 1012.8
20260509174542 18 197 4.8 4.8 0.00 0.13 0.13 93 1012.8
20260509174038 19 222 6.4 8.0 0.00 0.13 0.13 94 1012.9
20260509173538 19 211 1.6 3.2 0.00 0.13 0.13 95 1012.8
20260509173034 18 205 3.2 3.2 0.00 0.13 0.13 95 1012.8
20260509172531 18 201 0.0 1.6 0.00 0.13 0.13 95 1012.8
20260509172027 18 196 1.6 3.2 0.00 0.13 0.13 95 1012.7
20260509171523 18 163 6.4 8.0 0.00 0.13 0.13 96 1012.9
20260509171020 18 196 6.4 8.0 0.00 0.13 0.13 97 1012.9
20260509170515 18 209 4.8 4.8 0.00 0.13 0.13 97 1012.8
20260509170012 18 192 6.4 8.0 0.00 0.13 0.13 96 1013.0
20260509165510 18 176 0.0 0.0 0.00 0.13 0.13 98 1012.9
20260509165006 18 197 4.8 4.8 0.00 0.13 0.13 98 1012.8